SV1AAW Weather Reports


time (UTC)temp
C
wind
direction
speed
KPH
gust
KPH
rain 1hr
cm
rain 24hr
cm
rain mn
cm
humidity
%
barometer
mb
20260508085025 22 144 4.8 9.7 0.00 0.00 0.00 35 1020.3
20260508084024 22 145 3.2 9.7 0.00 0.00 0.00 36 1020.2
20260508083024 22 204 0.0 1.6 0.00 0.00 0.00 40 1020.4
20260508082020 22 170 1.6 4.8 0.00 0.00 0.00 42 1020.4
20260508081036 22 123 0.0 3.2 0.00 0.00 0.00 40 1020.3
20260508080044 21 100 3.2 6.4 0.00 0.00 0.00 45 1020.2
20260508075019 21 128 1.6 4.8 0.00 0.00 0.00 48 1020.2
20260508074017 22 138 3.2 6.4 0.00 0.00 0.00 44 1020.0
20260508073018 22 154 3.2 6.4 0.00 0.00 0.00 43 1019.9
20260508072024 20 21 1.6 3.2 0.00 0.00 0.00 52 1019.9
20260508071017 20 327 3.2 4.8 0.00 0.00 0.00 58 1019.8
20260508070018 19 7 3.2 4.8 0.00 0.00 0.00 61 1019.6
20260508065025 19 18 3.2 3.2 0.00 0.00 0.00 63 1019.7
20260508064024 18 9 1.6 3.2 0.00 0.00 0.00 64 1019.6
20260508063020 18 18 3.2 4.8 0.00 0.00 0.00 64 1019.8
20260508062019 18 22 1.6 3.2 0.00 0.00 0.00 65 1019.7
20260508061018 18 329 1.6 3.2 0.00 0.00 0.00 66 1019.6
20260508060024 18 6 0.0 1.6 0.00 0.00 0.00 66 1019.4
20260508055023 18 12 1.6 3.2 0.00 0.00 0.00 68 1019.5
20260508054022 18 349 1.6 3.2 0.00 0.00 0.00 66 1019.5
20260508053023 18 0.0 0.0 0.00 0.00 0.00 68 1019.5
20260508052022 18 192 0.0 1.6 0.00 0.00 0.00 69 1019.5
20260508051017 18 177 1.6 3.2 0.00 0.00 0.00 68 1019.5
20260508050023 18 0.0 0.0 0.00 0.00 0.00 68 1019.6
20260508045019 18 184 0.0 1.6 0.00 0.00 0.00 68 1019.5
20260508044019 17 0.0 0.0 0.00 0.00 0.00 67 1019.5
20260508043018 17 186 0.0 1.6 0.00 0.00 0.00 67 1019.5
20260508042039 17 168 0.0 1.6 0.00 0.00 0.00 67 1019.4
20260508041025 16 0.0 0.0 0.00 0.00 0.00 67 1019.4
20260508040024 16 0.0 0.0 0.00 0.00 0.00 67 1019.4
20260508035021 16 0.0 0.0 0.00 0.00 0.00 67 1019.2
20260508034022 16 0.0 0.0 0.00 0.00 0.00 66 1019.2
20260508033023 16 0.0 0.0 0.00 0.00 0.00 65 1019.3
20260508032042 16 0.0 0.0 0.00 0.00 0.00 65 1019.3
20260508031020 16 0.0 0.0 0.00 0.00 0.00 64 1019.2
20260508030021 16 0.0 0.0 0.00 0.00 0.00 64 1019.3
20260508025019 16 0.0 0.0 0.00 0.00 0.00 62 1019.3
20260508024039 16 142 0.0 1.6 0.00 0.00 0.00 64 1019.2
20260508023018 16 0.0 0.0 0.00 0.00 0.00 64 1019.4
20260508022046 16 0.0 0.0 0.00 0.00 0.00 65 1019.5
20260508021026 16 0.0 0.0 0.00 0.00 0.00 64 1019.3
20260508020025 16 0.0 0.0 0.00 0.00 0.00 65 1019.3
20260508015023 16 0.0 0.0 0.00 0.00 0.00 66 1019.5
20260508014020 16 0.0 0.0 0.00 0.00 0.00 65 1019.4
20260508013023 16 0.0 0.0 0.00 0.00 0.00 64 1019.4
20260508012017 16 140 0.0 1.6 0.00 0.00 0.00 64 1019.4
20260508011023 17 141 1.6 3.2 0.00 0.00 0.00 65 1019.3
20260508010023 17 146 0.0 3.2 0.00 0.00 0.00 65 1019.3
20260508005022 17 198 1.6 3.2 0.00 0.00 0.00 64 1019.3
20260508004042 17 200 1.6 3.2 0.00 0.00 0.00 58 1019.2
20260508003019 17 132 1.6 4.8 0.00 0.00 0.00 58 1019.2
20260508002018 17 0.0 0.0 0.00 0.00 0.00 59 1019.3
20260508001045 17 0.0 0.0 0.00 0.00 0.00 61 1019.5
20260508000025 17 0.0 0.0 0.00 0.00 0.00 58 1019.5
20260507235020 17 0.0 0.0 0.00 0.00 0.00 58 1019.5
20260507234019 17 0.0 0.0 0.00 0.00 0.00 57 1019.5
20260507233039 17 0.0 0.0 0.00 0.00 0.00 57 1019.7
20260507232016 17 0.0 0.0 0.00 0.00 0.00 56 1019.6
20260507231042 17 0.0 0.0 0.00 0.00 0.00 56 1019.6
20260507230019 17 0.0 0.0 0.00 0.00 0.00 55 1019.5
20260507225024 17 0.0 0.0 0.00 0.00 0.00 55 1019.5
20260507224024 17 0.0 0.0 0.00 0.00 0.00 55 1019.6
20260507223038 18 0.0 0.0 0.00 0.00 0.00 55 1019.8
20260507222041 18 0.0 0.0 0.00 0.00 0.00 55 1019.8
20260507221019 18 0.0 0.0 0.00 0.00 0.00 56 1019.9
20260507220038 18 0.0 0.0 0.00 0.00 0.00 56 1019.9
20260507215018 18 0.0 0.0 0.00 0.00 0.00 56 1019.9
20260507214038 18 0.0 0.0 0.00 0.00 0.00 54 1020.0
20260507213020 18 0.0 0.0 0.00 0.00 0.00 52 1020.0
20260507212018 19 0.0 0.0 0.00 0.00 0.00 51 1020.0
20260507211036 20 346 0.0 1.6 0.00 0.00 0.00 50 1019.8
20260507210030 19 355 1.6 3.2 0.00 0.00 0.00 51 1019.9
20260507205103 20 326 1.6 3.2 0.00 0.00 0.00 50 1019.9
20260507204022 19 16 1.6 6.4 0.00 0.00 0.00 51 1019.9
20260507203020 20 347 1.6 1.6 0.00 0.00 0.00 51 1019.8
20260507202019 20 1 1.6 3.2 0.00 0.00 0.00 52 1019.7
20260507201018 20 360 1.6 3.2 0.00 0.00 0.00 51 1019.9
20260507200024 20 12 1.6 3.2 0.00 0.00 0.00 48 1019.9
20260507195021 20 353 1.6 3.2 0.00 0.00 0.00 45 1019.9
20260507194026 21 350 1.6 4.8 0.00 0.00 0.00 42 1020.1
20260507193026 21 266 1.6 3.2 0.00 0.00 0.00 41 1020.0
20260507192024 21 256 3.2 6.4 0.00 0.00 0.00 40 1019.8
20260507191020 21 269 3.2 4.8 0.00 0.00 0.00 39 1019.8
20260507190024 22 297 3.2 6.4 0.00 0.00 0.00 37 1019.7
20260507185022 21 251 3.2 11.3 0.00 0.00 0.00 38 1019.5
20260507184045 21 12 4.8 11.3 0.00 0.00 0.00 44 1019.6
20260507183040 22 14 3.2 11.3 0.00 0.00 0.00 39 1019.5
20260507182018 21 159 1.6 3.2 0.00 0.00 0.00 40 1019.4
20260507181024 20 47 1.6 4.8 0.00 0.00 0.00 55 1019.2
20260507180018 21 17 3.2 4.8 0.00 0.00 0.00 54 1019.0
20260507175024 21 19 0.0 1.6 0.00 0.00 0.00 44 1018.8
20260507174019 22 13 1.6 3.2 0.00 0.00 0.00 41 1018.8
20260507173016 22 329 0.0 1.6 0.00 0.00 0.00 37 1018.7
20260507172018 22 328 0.0 1.6 0.00 0.00 0.00 33 1018.8
20260507171026 23 316 1.6 3.2 0.00 0.00 0.00 32 1018.8
20260507170024 23 267 1.6 3.2 0.00 0.00 0.00 30 1018.8
20260507165041 23 274 1.6 4.8 0.00 0.00 0.00 30 1018.8
20260507164018 23 253 4.8 11.3 0.00 0.00 0.00 29 1018.9
20260507163038 23 241 4.8 6.4 0.00 0.00 0.00 29 1018.9
20260507162023 23 248 3.2 9.7 0.00 0.00 0.00 28 1018.8
20260507161017 23 244 4.8 9.7 0.00 0.00 0.00 29 1018.7
20260507160018 24 235 4.8 12.9 0.00 0.00 0.00 29 1018.8
20260507155018 24 232 4.8 9.7 0.00 0.00 0.00 30 1018.8
20260507154018 24 234 4.8 11.3 0.00 0.00 0.00 30 1018.7
20260507153016 24 228 4.8 11.3 0.00 0.00 0.00 30 1018.7
20260507152024 25 209 4.8 9.7 0.00 0.00 0.00 29 1018.8
20260507151022 25 222 6.4 14.5 0.00 0.00 0.00 29 1018.9
20260507150020 25 212 6.4 16.1 0.00 0.00 0.00 29 1018.9
20260507145023 25 227 8.0 17.7 0.00 0.00 0.00 30 1019.0
20260507144020 25 217 8.0 17.7 0.00 0.00 0.00 31 1019.0
20260507143019 25 205 8.0 14.5 0.00 0.00 0.00 31 1019.1
20260507142021 24 220 9.7 16.1 0.00 0.00 0.00 32 1019.1
20260507141021 24 189 8.0 16.1 0.00 0.00 0.00 34 1019.1
20260507140025 24 218 8.0 14.5 0.00 0.00 0.00 35 1019.1
20260507135020 24 236 8.0 14.5 0.00 0.00 0.00 34 1019.2
20260507134017 24 232 9.7 20.9 0.00 0.00 0.00 35 1019.3
20260507133020 25 221 9.7 20.9 0.00 0.00 0.00 36 1019.4
20260507132037 25 214 8.0 16.1 0.00 0.00 0.00 37 1019.2
20260507131024 25 208 8.0 16.1 0.00 0.00 0.00 35 1019.2
20260507130021 25 236 8.0 16.1 0.00 0.00 0.00 33 1019.2
20260507125017 26 227 8.0 16.1 0.00 0.00 0.00 33 1019.3
20260507124026 26 189 6.4 14.5 0.00 0.00 0.00 31 1019.3
20260507123019 26 185 6.4 12.9 0.00 0.00 0.00 29 1019.3
20260507122017 26 164 6.4 14.5 0.00 0.00 0.00 30 1019.3
20260507121025 25 161 6.4 12.9 0.00 0.00 0.00 34 1019.3
20260507120020 25 157 3.2 11.3 0.00 0.00 0.00 38 1019.4
20260507115045 25 116 4.8 9.7 0.00 0.00 0.00 34 1019.4
20260507114042 25 140 4.8 9.7 0.00 0.00 0.00 35 1019.4
20260507113024 25 171 6.4 12.9 0.00 0.00 0.00 31 1019.4
20260507112019 25 159 8.0 16.1 0.00 0.00 0.00 31 1019.4
20260507111018 25 164 8.0 14.5 0.00 0.00 0.00 32 1019.4
20260507110017 25 170 8.0 14.5 0.00 0.00 0.00 33 1019.5
20260507105023 24 163 6.4 14.5 0.00 0.00 0.00 36 1019.7
20260507104021 23 139 4.8 9.7 0.00 0.00 0.00 42 1019.7
20260507103017 22 131 4.8 14.5 0.00 0.00 0.00 43 1019.6
20260507102022 22 148 8.0 16.1 0.00 0.00 0.00 44 1019.6
20260507101018 22 142 9.7 17.7 0.00 0.00 0.00 45 1019.7
20260507100017 22 140 8.0 17.7 0.00 0.00 0.00 44 1019.8
20260507095023 21 131 8.0 14.5 0.00 0.00 0.00 44 1019.8
20260507094026 21 148 9.7 20.9 0.00 0.00 0.00 44 1019.8
20260507093021 21 142 8.0 16.1 0.00 0.00 0.00 45 1019.9
20260507092019 21 144 8.0 16.1 0.00 0.00 0.00 45 1019.8
20260507091017 21 147 9.7 24.1 0.00 0.00 0.00 46 1019.8
20260507090018 21 159 8.0 17.7 0.00 0.00 0.00 46 1020.0